Weather History for EGPN - May, 2013

Change the Weather History Date:

Friday, May 24, 2013

  Actual Average Record
Temperature  
Mean Temperature 52 °F -  
Max Temperature 57 °F 60 °F 66 °F (2012)
Min Temperature 46 °F 51 °F 44 °F (2006)
Degree Days  
Heating Degree Days 14    
Growing Degree Days 2 (Base 50)    
Moisture  
Dew Point 39 °F    
Average Humidity 63    
Maximum Humidity 87    
Minimum Humidity 36    
Precipitation  
Precipitation 0.00 in - - ()
Sea Level Pressure  
Sea Level Pressure 30.11 in    
Wind  
Wind Speed 12 mph ()    
Max Wind Speed 18 mph    
Max Gust Speed 28 mph    
Visibility 6.2 miles    
Events      
Averages and records for this station are not official NWS values.
T = Trace of Precipitation, MM = Missing Value Source: Averaged Metar Reports

Daily Weather History Graph

Daily Weather History Graph

Search for Another Location

Airport or City:

Trip Planner

Search our weather history database for the weather conditions in past years. The results will help you decide how hot, cold, wet, or windy it might be!

Date:

Astronomy

May. 24, 2013 Rise Set
Actual Time 4:41 AM BST 9:37 PM BST
Civil Twilight 3:45 AM BST 10:33 PM BST
Nautical Twilight 2:01 AM BST 12:22 AM BST
Astronomical Twilight Sun does not rise Sun does not rise
Moon 8:55 PM BST (5/24) 4:16 AM BST (5/24)
Length of Visible Light 18h 47m
Length of Day
16h 56m
Waxing Gibbous, 99% of the Moon is Illuminated
May 24
Waxing Gibbous
May 25
Full
May 31
Last Quarter
Jun 8
New
Jun 16
First Quarter

Hourly Weather History & Observations

Time (BST) Temp. Windchill Dew Point Humidity Pressure Visibility Wind Dir Wind Speed Gust Speed Precip Events Conditions
7:20 AM 48.2 °F - 39.2 °F 71% 30.01 in 6.2 mi NNE 8.1 mph - N/A   Mostly Cloudy
7:50 AM 48.2 °F - 39.2 °F 71% 30.01 in 6.2 mi NNE 12.7 mph - N/A   Mostly Cloudy
8:20 AM 50.0 °F - 39.2 °F 66% 30.01 in 6.2 mi NE 15.0 mph - N/A   Mostly Cloudy
8:50 AM 50.0 °F - 37.4 °F 62% 30.04 in 6.2 mi NNE 13.8 mph - N/A   Mostly Cloudy
9:20 AM 50.0 °F - 37.4 °F 62% 30.06 in 6.2 mi NNE 10.4 mph - N/A   Mostly Cloudy
9:50 AM 50.0 °F - 37.4 °F 62% 30.06 in 6.2 mi ENE 12.7 mph - N/A   Mostly Cloudy
10:20 AM 51.8 °F - 35.6 °F 54% 30.06 in 6.2 mi ENE 13.8 mph - N/A   Scattered Clouds
10:50 AM 53.6 °F - 35.6 °F 51% 30.09 in 6.2 mi ENE 13.8 mph - N/A   Scattered Clouds
11:20 AM 55.4 °F - 35.6 °F 47% 30.09 in 6.2 mi NE 16.1 mph - N/A   Scattered Clouds
11:50 AM 55.4 °F - 35.6 °F 47% 30.09 in 6.2 mi ENE 16.1 mph - N/A   Scattered Clouds
12:20 PM 55.4 °F - 37.4 °F 51% 30.09 in 6.2 mi ENE 16.1 mph 27.6 mph N/A   Scattered Clouds
12:50 PM 55.4 °F - 35.6 °F 47% 30.09 in 6.2 mi ENE 15.0 mph - N/A   Scattered Clouds
1:20 PM 57.2 °F - 30.2 °F 36% 30.12 in 6.2 mi ENE 16.1 mph - N/A   Partly Cloudy
1:50 PM 53.6 °F - 39.2 °F 58% 30.12 in 6.2 mi East 18.4 mph - N/A   Partly Cloudy
2:20 PM 55.4 °F - 44.6 °F 67% 30.12 in 6.2 mi East 13.8 mph - N/A   Partly Cloudy
2:50 PM 51.8 °F - 39.2 °F 62% 30.12 in 6.2 mi East 15.0 mph - N/A   Partly Cloudy
3:20 PM 53.6 °F - 41.0 °F 62% 30.12 in 6.2 mi East 13.8 mph - N/A   Partly Cloudy
3:50 PM 53.6 °F - 41.0 °F 62% 30.15 in 6.2 mi East 15.0 mph - N/A   Partly Cloudy
4:20 PM 53.6 °F - 42.8 °F 67% 30.15 in 6.2 mi East 16.1 mph - N/A   Partly Cloudy
4:50 PM 53.6 °F - 42.8 °F 67% 30.15 in 6.2 mi East 17.3 mph - N/A   Partly Cloudy
5:20 PM 53.6 °F - 41.0 °F 62% 30.15 in 6.2 mi East 15.0 mph - N/A   Partly Cloudy
5:50 PM 53.6 °F - 41.0 °F 62% 30.15 in 6.2 mi East 13.8 mph - N/A   Partly Cloudy
6:20 PM 53.6 °F - 42.8 °F 67% 30.15 in 6.2 mi East 11.5 mph - N/A   Partly Cloudy
6:50 PM 51.8 °F - 41.0 °F 67% 30.15 in 6.2 mi East 12.7 mph - N/A   Partly Cloudy
7:20 PM 51.8 °F - 41.0 °F 67% 30.18 in - East 8.1 mph - N/A   Clear
7:50 PM 51.8 °F - 41.0 °F 67% 30.18 in - ESE 6.9 mph - N/A   Clear
8:20 PM 50.0 °F - 42.8 °F 76% 30.18 in - ESE 10.4 mph - N/A   Clear
8:50 PM 48.2 °F - 41.0 °F 76% 30.18 in - East 6.9 mph - N/A   Clear
9:20 PM 46.4 °F 42.4 °F 41.0 °F 81% 30.18 in - East 8.1 mph - N/A   Clear
9:50 PM 46.4 °F 43.5 °F 42.8 °F 87% 30.18 in - East 5.8 mph - N/A   Clear